Weather in Ust-Izhma

Russia / Komi Republic     65°18′08″N   52°55′13″E
temp.,
°C
wind,
m/s
gust,
m/s
humid.,
%
clouds,
%
prec.,
mm/h
press.,
hPa
HPBL,
m
22 january, fri
fri2200:00−22ene259898 0.0 1018125
03:00−23ne229898 0.1 102038
06:00−26n229989 0.0 102120
09:00−28n119877 0.0 102319
12:00−27nne119627 0.0 102519
15:00−30nne119719 0.0 102719
18:00−30ene119712 0.0 102719
21:00−31e119726 0.0 102819
23 january, sat
sat2300:00−31ese1197100 0.0 102819
03:00−30ese2297100 0.0 102927
06:00−29ese2397100 0.0 102877
09:00−28ese2497100 0.0 1028101
12:00−26ese369495 0.0 1027215
15:00−28ese359548 0.0 1027120
18:00−28ese37970 0.0 1027144
21:00−29ese379820 0.0 1027163
24 january, sun
sun2400:00−28ese389698 0.0 1026237
03:00−26se499599 0.0 1025302
06:00−23se51193100 0.0 1023413
09:00−21se51297100 0.4 1021543
12:00−20se51197100 1.3 1020574
15:00−20sse4996100 2.1 1019590
18:00−20se3895100 0.3 1020426
21:00−19sse389699 0.4 1020355
25 january, mon
mon2500:00−18sse3896100 0.1 1020354
03:00−18sse3895100 0.2 1021345
06:00−17sse3894100 0.1 1020341
09:00−16sse3894100 0.2 1020345
12:00−16sse4794100 0.1 1020321
15:00−15sse4894100 0.3 1020319
18:00−13sse4895100 0.7 1019330
21:00−13sse4894100 1.3 1018315
26 january, tue
tue2600:00−12sse4895100 0.4 1017283
03:00−10sse3795100 1.1 1015263
06:00−7s3796100 0.8 1014236
09:00−2ssw3898100 1.8 1013336
12:00+1sw3999100 0.8 1012475
15:000wsw4997100 1.3 1012661
18:00−1sw31096100 0.1 1012409
21:000sw3898100 0.7 1012474